Weather History for KODX - August, 2013

Change the Weather History Date:

Thursday, August 1, 2013

  Actual Average Record
Temperature  
Mean Temperature 75 °F 75 °F  
Max Temperature 88 °F 87 °F 100 °F (2011)
Min Temperature 61 °F 62 °F 53 °F (2014)
Degree Days  
Heating Degree Days 0 0  
Month to date heating degree days 0 0  
Since 1 June heating degree days 54 42  
Since 1 July heating degree days 7 5  
Cooling Degree Days 10 10  
Month to date cooling degree days 10 10  
Year to date cooling degree days 498 510  
Since 1 June cooling degree days 451 469  
Growing Degree Days 24 (Base 50)    
Moisture  
Dew Point 65 °F    
Average Humidity 75    
Maximum Humidity 100    
Minimum Humidity 50    
Precipitation  
Precipitation 0.21 in 0.09 in 1.21 in (1995)
Month to date precipitation 0.21 0.09  
Year to date precipitation 15.87 15.84  
Sea Level Pressure  
Sea Level Pressure 29.99 in    
Wind  
Wind Speed 8 mph (SE)    
Max Wind Speed 24 mph    
Max Gust Speed 31 mph    
Visibility 8 miles    
Events Rain , Thunderstorm    
T = Trace of Precipitation, MM = Missing Value Source: NWS Daily Summary

Daily Weather History Graph

Daily Weather History Graph

Search for Another Location

Airport or City:

Trip Planner

Search our weather history database for the weather conditions in past years. The results will help you decide how hot, cold, wet, or windy it might be!

Date:

Astronomy

Aug. 01, 2013 Rise Set
Actual Time 6:30 AM CDT 8:53 PM CDT
Civil Twilight 5:59 AM CDT 9:24 PM CDT
Nautical Twilight 5:20 AM CDT 10:02 PM CDT
Astronomical Twilight 4:37 AM CDT 10:45 PM CDT
Moon 2:07 AM CDT 5:03 PM CDT
Length of Visible Light 15h 25m
Length of Day
14h 22m
Waning Crescent, 23% of the Moon is Illuminated
Aug 1
Waning Crescent
Aug 6
New
Aug 14
First Quarter
Aug 20
Full
Aug 28
Last Quarter

Hourly Weather History & Observations

Time (CDT) Temp. Heat Index Dew Point Humidity Pressure Visibility Wind Dir Wind Speed Gust Speed Precip Events Conditions
12:53 AM 63.0 °F - 61.0 °F 93% 30.11 in 10.0 mi SW 3.5 mph - N/A   Clear
1:53 AM 63.0 °F - 61.0 °F 93% 30.11 in 10.0 mi Calm Calm - N/A   Clear
2:53 AM 62.1 °F - 61.0 °F 96% 30.10 in 10.0 mi Calm Calm - N/A   Mostly Cloudy
3:53 AM 63.0 °F - 61.0 °F 93% 30.09 in 10.0 mi Calm Calm - N/A   Overcast
4:53 AM 61.0 °F - 59.0 °F 93% 30.09 in 7.0 mi Calm Calm - N/A   Partly Cloudy
5:53 AM 61.0 °F - 60.1 °F 97% 30.08 in 7.0 mi Calm Calm - N/A   Mostly Cloudy
6:53 AM 62.1 °F - 61.0 °F 96% 30.08 in 5.0 mi SE 4.6 mph - N/A   Scattered Clouds
7:34 AM 62.6 °F - 60.8 °F 94% 30.09 in 2.0 mi ENE 4.6 mph - N/A   Clear
7:53 AM 62.1 °F - 61.0 °F 96% 30.10 in 2.5 mi North 8.1 mph - N/A   Partly Cloudy
8:00 AM 64.4 °F - 62.6 °F 94% 30.12 in 4.0 mi Calm Calm - N/A   Mostly Cloudy
8:53 AM 69.1 °F - 66.0 °F 90% 30.09 in 8.0 mi SSE 3.5 mph - N/A   Mostly Cloudy
9:53 AM 73.9 °F - 66.0 °F 76% 30.07 in 10.0 mi SE 5.8 mph - N/A   Clear
10:53 AM 75.9 °F - 68.0 °F 76% 30.06 in 10.0 mi East 10.4 mph - N/A   Overcast
11:20 AM 75.2 °F - 66.2 °F 73% 30.09 in 10.0 mi East 12.7 mph - N/A   Mostly Cloudy
11:41 AM 75.2 °F - 66.2 °F 73% 30.08 in 10.0 mi ESE 10.4 mph 20.7 mph N/A   Mostly Cloudy
11:53 AM 75.0 °F - 66.9 °F 76% 30.06 in 10.0 mi SE 9.2 mph - N/A   Overcast
12:53 PM 81.0 °F 84.4 °F 70.0 °F 69% 30.03 in 10.0 mi South 15.0 mph - N/A   Clear
1:53 PM 84.9 °F 87.6 °F 66.9 °F 55% 29.99 in 10.0 mi South 16.1 mph 25.3 mph N/A   Scattered Clouds
2:53 PM 84.0 °F 87.0 °F 68.0 °F 58% 29.94 in 10.0 mi South 15.0 mph 23.0 mph N/A   Mostly Cloudy
3:53 PM 87.1 °F 89.2 °F 66.0 °F 49% 29.91 in 10.0 mi South 16.1 mph 24.2 mph N/A   Scattered Clouds
4:53 PM 84.9 °F 87.1 °F 66.0 °F 53% 29.90 in 10.0 mi South 12.7 mph 20.7 mph N/A   Scattered Clouds
5:53 PM 84.9 °F 87.6 °F 66.9 °F 55% 29.90 in 10.0 mi SSE 9.2 mph - N/A   Mostly Cloudy
6:37 PM 75.2 °F - 64.4 °F 69% 29.91 in 10.0 mi East 12.7 mph - N/A   Mostly Cloudy
6:53 PM 75.9 °F - 64.0 °F 67% 29.89 in 10.0 mi East 13.8 mph 19.6 mph N/A   Mostly Cloudy
7:05 PM 73.4 °F - 64.4 °F 73% 29.91 in 10.0 mi East 11.5 mph - N/A Thunderstorm Scattered Clouds
7:51 PM 71.6 °F - 66.2 °F 83% 29.96 in 10.0 mi NW 21.9 mph 31.1 mph N/A Thunderstorm Thunderstorm
7:53 PM 72.0 °F - 64.9 °F 78% 29.94 in 10.0 mi NNW 23.0 mph 31.1 mph N/A Thunderstorm Thunderstorm
7:57 PM 69.8 °F - 64.4 °F 83% 29.92 in 1.8 mi NE 17.3 mph 31.1 mph 0.13 in Rain , Thunderstorm Light Thunderstorms and Rain
8:01 PM 68.0 °F - 66.2 °F 94% 29.93 in 0.8 mi Variable 4.6 mph 28.8 mph 0.21 in Rain , Thunderstorm Heavy Thunderstorms and Rain
8:05 PM 68.0 °F - 66.2 °F 94% 29.93 in 1.0 mi WSW 11.5 mph 23.0 mph 0.21 in Rain , Thunderstorm Thunderstorms and Rain
8:09 PM 71.6 °F - 66.2 °F 83% 29.93 in 2.5 mi WSW 9.2 mph 25.3 mph 0.21 in Rain , Thunderstorm Light Thunderstorms and Rain
8:13 PM 71.6 °F - 66.2 °F 83% 29.91 in 8.0 mi East 10.4 mph 25.3 mph 0.21 in Rain , Thunderstorm Light Thunderstorms and Rain
8:20 PM 69.8 °F - 66.2 °F 88% 29.93 in 10.0 mi NE 10.4 mph 20.7 mph 0.21 in Thunderstorm Thunderstorm
8:53 PM 66.9 °F - 64.9 °F 93% 29.91 in 10.0 mi East 10.4 mph - 0.21 in Thunderstorm Scattered Clouds
9:25 PM 66.2 °F - 64.4 °F 94% 29.91 in 10.0 mi East 8.1 mph - 0.00 in   Mostly Cloudy
9:37 PM 66.2 °F - 64.4 °F 94% 29.92 in 10.0 mi NE 5.8 mph - 0.00 in Thunderstorm Mostly Cloudy
9:53 PM 66.9 °F - 64.0 °F 90% 29.88 in 10.0 mi SE 4.6 mph - 0.00 in   Mostly Cloudy
10:53 PM 68.0 °F - 66.0 °F 93% 29.86 in 10.0 mi SE 10.4 mph 18.4 mph N/A   Clear
11:04 PM 68.0 °F - 66.2 °F 94% 29.89 in 10.0 mi ESE 9.2 mph - N/A   Scattered Clouds
11:53 PM 66.9 °F - 64.0 °F 90% 29.88 in 10.0 mi South 5.8 mph - N/A   Partly Cloudy